N414WB KSAV-KMYR

Flight info

Callsign N414WB
Flight time 0h 56m
Altitude 19000
Route JROSS
Aircraft C414/L-SBDFGRY/S

Departure

Time 2026-04-24 00:45
Airport Savannah Hilton Head International Airport (KSAV)

Arrival

Time 2026-04-24 01:41
Airport Myrtle Beach International Airport (KMYR)
Time Latitude Longitude Altitude Speed Heading
2026-04-23 23:59 32.12192 -81.19724 36 ft 0 kts 181°
2026-04-24 00:39 32.12179 -81.19724 36 ft 5 kts 182°
2026-04-24 00:39 32.12175 -81.19760 36 ft 8 kts 274°
2026-04-24 00:39 32.12201 -81.19810 36 ft 12 kts 351°
2026-04-24 00:39 32.12280 -81.19810 37 ft 11 kts
2026-04-24 00:40 32.12368 -81.19811 39 ft 14 kts
2026-04-24 00:40 32.12474 -81.19813 40 ft 16 kts
2026-04-24 00:40 32.12591 -81.19813 40 ft 18 kts
2026-04-24 00:40 32.12715 -81.19816 40 ft 17 kts
2026-04-24 00:41 32.12836 -81.19815 42 ft 18 kts 359°
2026-04-24 00:41 32.12968 -81.19816 40 ft 20 kts 359°
2026-04-24 00:41 32.13116 -81.19820 40 ft 22 kts
2026-04-24 00:41 32.13264 -81.19820 43 ft 21 kts
2026-04-24 00:42 32.13413 -81.19821 43 ft 18 kts
2026-04-24 00:42 32.13497 -81.19820 43 ft 11 kts 359°
2026-04-24 00:42 32.13553 -81.19853 45 ft 9 kts 296°
2026-04-24 00:42 32.13557 -81.19875 45 ft 0 kts 269°
2026-04-24 00:43 32.13556 -81.19893 46 ft 7 kts 269°
2026-04-24 00:43 32.13556 -81.19973 48 ft 11 kts 268°
2026-04-24 00:44 32.13517 -81.20014 49 ft 9 kts 180°
2026-04-24 00:44 32.13413 -81.20014 47 ft 35 kts 180°
2026-04-24 00:44 32.13003 -81.20010 44 ft 80 kts 180°
2026-04-24 00:44 32.12401 -81.20008 231 ft 91 kts 180°
2026-04-24 00:45 32.11732 -81.20004 483 ft 100 kts 180°
2026-04-24 00:45 32.11065 -81.19777 806 ft 102 kts 142°
2026-04-24 00:45 32.10687 -81.19044 1098 ft 113 kts 112°
2026-04-24 00:45 32.10627 -81.18071 1363 ft 123 kts 94°
2026-04-24 00:46 32.10693 -81.17050 1687 ft 123 kts 92°
2026-04-24 00:46 32.10745 -81.16040 2022 ft 124 kts 94°
2026-04-24 00:46 32.10790 -81.15016 2334 ft 126 kts 95°
2026-04-24 00:46 32.10962 -81.13983 2651 ft 132 kts 72°
2026-04-24 00:47 32.11482 -81.13093 3009 ft 133 kts 45°
2026-04-24 00:47 32.12237 -81.12387 3228 ft 141 kts 39°
2026-04-24 00:47 32.13028 -81.11713 3575 ft 139 kts 36°
2026-04-24 00:47 32.13807 -81.11009 3862 ft 142 kts 39°
2026-04-24 00:48 32.14580 -81.10307 4207 ft 140 kts 37°
2026-04-24 00:48 32.15360 -81.09599 4521 ft 140 kts 37°
2026-04-24 00:48 32.16116 -81.08913 4894 ft 136 kts 36°
2026-04-24 00:48 32.16856 -81.08186 5161 ft 142 kts 39°
2026-04-24 00:49 32.17594 -81.07404 5467 ft 141 kts 39°
2026-04-24 00:49 32.18319 -81.06641 5744 ft 142 kts 38°
2026-04-24 00:49 32.19077 -81.05881 6019 ft 143 kts 36°
2026-04-24 00:49 32.19838 -81.05132 6307 ft 143 kts 36°
2026-04-24 00:50 32.20598 -81.04371 6585 ft 143 kts 37°
2026-04-24 00:50 32.21331 -81.03606 6870 ft 142 kts 38°
2026-04-24 00:50 32.22060 -81.02840 7178 ft 140 kts 38°
2026-04-24 00:50 32.22837 -81.02061 7330 ft 148 kts 37°
2026-04-24 00:51 32.23605 -81.01294 7692 ft 142 kts 38°
2026-04-24 00:51 32.24376 -81.00533 7887 ft 149 kts 37°
2026-04-24 00:51 32.25175 -80.99801 8242 ft 142 kts 36°
2026-04-24 00:51 32.25949 -80.99043 8485 ft 146 kts 39°
2026-04-24 00:52 32.26719 -80.98268 8797 ft 145 kts 38°
2026-04-24 00:52 32.27526 -80.97524 9023 ft 149 kts 35°
2026-04-24 00:52 32.28350 -80.96830 9377 ft 145 kts 36°
2026-04-24 00:52 32.29172 -80.96073 9572 ft 151 kts 35°
2026-04-24 00:53 32.30104 -80.95580 9898 ft 148 kts
2026-04-24 00:53 32.31145 -80.95488 10151 ft 148 kts
2026-04-24 00:53 32.32181 -80.95435 10380 ft 152 kts
2026-04-24 00:53 32.33249 -80.95362 10631 ft 152 kts
2026-04-24 00:54 32.34297 -80.95297 10896 ft 153 kts
2026-04-24 00:54 32.35377 -80.95249 11150 ft 153 kts
2026-04-24 00:54 32.36419 -80.95173 11474 ft 150 kts
2026-04-24 00:54 32.37473 -80.95095 11711 ft 153 kts
2026-04-24 00:55 32.38525 -80.94868 11916 ft 158 kts 24°
2026-04-24 00:55 32.39436 -80.94151 12197 ft 155 kts 40°
2026-04-24 00:55 32.40287 -80.93343 12422 ft 159 kts 40°
2026-04-24 00:55 32.41148 -80.92518 12705 ft 159 kts 40°
2026-04-24 00:56 32.41974 -80.91645 12961 ft 160 kts 46°
2026-04-24 00:56 32.42800 -80.90754 13220 ft 161 kts 43°
2026-04-24 00:56 32.43662 -80.89895 13483 ft 162 kts 42°
2026-04-24 00:56 32.44533 -80.89035 13747 ft 164 kts 42°
2026-04-24 00:57 32.45410 -80.88173 14007 ft 163 kts 42°
2026-04-24 00:57 32.46273 -80.87324 14303 ft 159 kts 42°
2026-04-24 00:57 32.47957 -80.85663 14852 ft 156 kts 41°
2026-04-24 00:58 32.48790 -80.84841 15120 ft 156 kts 41°
2026-04-24 00:58 32.49621 -80.84020 15381 ft 155 kts 41°
2026-04-24 00:58 32.50451 -80.83201 15645 ft 155 kts 40°
2026-04-24 00:58 32.51280 -80.82382 15903 ft 155 kts 40°
2026-04-24 00:59 32.52112 -80.81558 16144 ft 157 kts 40°
2026-04-24 00:59 32.52955 -80.80726 16386 ft 158 kts 39°
2026-04-24 00:59 32.53804 -80.79887 16636 ft 159 kts 39°
2026-04-24 00:59 32.54646 -80.79056 16885 ft 160 kts 39°
2026-04-24 01:00 32.55501 -80.78208 17141 ft 161 kts 38°
2026-04-24 01:00 32.56373 -80.77346 17406 ft 161 kts 38°
2026-04-24 01:00 32.57235 -80.76491 17661 ft 162 kts 38°
2026-04-24 01:00 32.58102 -80.75636 17921 ft 162 kts 38°
2026-04-24 01:01 32.58969 -80.74774 18175 ft 163 kts 38°
2026-04-24 01:01 32.59842 -80.73911 18379 ft 167 kts 38°
2026-04-24 01:01 32.60741 -80.73020 18572 ft 170 kts 37°
2026-04-24 01:01 32.61650 -80.72121 18778 ft 171 kts 38°
2026-04-24 01:02 32.62564 -80.71213 18975 ft 173 kts 38°
2026-04-24 01:02 32.63524 -80.70263 19009 ft 186 kts 38°
2026-04-24 01:02 32.64552 -80.69242 19006 ft 199 kts 38°
2026-04-24 01:02 32.65638 -80.68163 19007 ft 208 kts 38°
2026-04-24 01:03 32.66772 -80.67037 19004 ft 216 kts 38°
2026-04-24 01:03 32.67930 -80.65885 19004 ft 219 kts 38°
2026-04-24 01:03 32.69105 -80.64718 19002 ft 221 kts 38°
2026-04-24 01:03 32.70289 -80.63541 19011 ft 223 kts 38°
2026-04-24 01:04 32.71408 -80.62270 19004 ft 224 kts 51°
2026-04-24 01:04 32.72299 -80.60748 19006 ft 224 kts 56°
2026-04-24 01:04 32.73158 -80.59204 19006 ft 224 kts 54°
2026-04-24 01:04 32.74042 -80.57701 19006 ft 221 kts 54°
2026-04-24 01:05 32.74916 -80.56200 19001 ft 221 kts 54°
2026-04-24 01:05 32.75791 -80.54695 19001 ft 221 kts 54°
2026-04-24 01:05 32.76665 -80.53191 19000 ft 221 kts 54°
2026-04-24 01:05 32.77539 -80.51689 18998 ft 221 kts 54°
2026-04-24 01:06 32.78413 -80.50188 19000 ft 221 kts 54°
2026-04-24 01:06 32.79286 -80.48686 19001 ft 221 kts 54°
2026-04-24 01:06 32.80158 -80.47185 19000 ft 221 kts 54°
2026-04-24 01:06 32.81029 -80.45685 19000 ft 221 kts 54°
2026-04-24 01:07 32.81901 -80.44181 19000 ft 221 kts 54°
2026-04-24 01:07 32.82774 -80.42679 18997 ft 221 kts 54°
2026-04-24 01:07 32.83646 -80.41176 19001 ft 221 kts 54°
2026-04-24 01:07 32.84519 -80.39670 18997 ft 221 kts 54°
2026-04-24 01:08 32.85391 -80.38166 18983 ft 221 kts 54°
2026-04-24 01:08 32.86262 -80.36661 18985 ft 221 kts 54°
2026-04-24 01:08 32.87135 -80.35154 18985 ft 221 kts 54°
2026-04-24 01:08 32.88007 -80.33647 18982 ft 221 kts 54°
2026-04-24 01:09 32.88868 -80.32160 18982 ft 221 kts 54°
2026-04-24 01:09 32.89752 -80.30631 18981 ft 221 kts 54°
2026-04-24 01:09 32.90613 -80.29142 18979 ft 221 kts 54°
2026-04-24 01:09 32.91484 -80.27634 18979 ft 221 kts 54°
2026-04-24 01:10 32.92357 -80.26124 18980 ft 221 kts 54°
2026-04-24 01:10 32.93229 -80.24615 18980 ft 221 kts 54°
2026-04-24 01:10 32.94098 -80.23109 18982 ft 221 kts 54°
2026-04-24 01:10 32.94971 -80.21596 18984 ft 221 kts 54°
2026-04-24 01:11 32.95841 -80.20087 18988 ft 221 kts 54°
2026-04-24 01:11 32.96712 -80.18577 18983 ft 221 kts 54°
2026-04-24 01:11 32.97583 -80.17066 18983 ft 221 kts 54°
2026-04-24 01:11 32.98453 -80.15556 19000 ft 221 kts 54°
2026-04-24 01:12 32.99323 -80.14045 19000 ft 221 kts 54°
2026-04-24 01:12 33.00193 -80.12533 19000 ft 221 kts 54°
2026-04-24 01:12 33.01064 -80.11020 18998 ft 221 kts 54°
2026-04-24 01:12 33.01934 -80.09506 18999 ft 221 kts 54°
2026-04-24 01:13 33.02804 -80.07994 19001 ft 221 kts 54°
2026-04-24 01:13 33.03674 -80.06479 19001 ft 221 kts 54°
2026-04-24 01:13 33.04543 -80.04968 19000 ft 221 kts 54°
2026-04-24 01:13 33.05413 -80.03453 19001 ft 221 kts 54°
2026-04-24 01:14 33.06282 -80.01938 19002 ft 221 kts 54°
2026-04-24 01:14 33.07151 -80.00423 18998 ft 222 kts 54°
2026-04-24 01:14 33.08021 -79.98907 19000 ft 222 kts 54°
2026-04-24 01:14 33.08890 -79.97390 19001 ft 222 kts 55°
2026-04-24 01:15 33.09466 -79.96385 19001 ft 222 kts 55°
2026-04-24 01:15 33.10335 -79.94869 19000 ft 222 kts 55°
2026-04-24 01:15 33.11205 -79.93350 19000 ft 222 kts 55°
2026-04-24 01:15 33.12074 -79.91831 19001 ft 222 kts 55°
2026-04-24 01:16 33.12944 -79.90311 19000 ft 222 kts 55°
2026-04-24 01:16 33.13814 -79.88791 18998 ft 222 kts 55°
2026-04-24 01:16 33.14684 -79.87267 18997 ft 222 kts 55°
2026-04-24 01:16 33.15554 -79.85745 18996 ft 222 kts 55°
2026-04-24 01:17 33.16718 -79.83708 18994 ft 222 kts 55°
2026-04-24 01:17 33.17295 -79.82698 18995 ft 222 kts 55°
2026-04-24 01:17 33.18165 -79.81174 18993 ft 222 kts 55°
2026-04-24 01:17 33.19034 -79.79650 18990 ft 222 kts 55°
2026-04-24 01:18 33.19904 -79.78125 18990 ft 222 kts 55°
2026-04-24 01:18 33.20774 -79.76599 18986 ft 222 kts 55°
2026-04-24 01:18 33.21644 -79.75072 18988 ft 222 kts 55°
2026-04-24 01:18 33.22514 -79.73545 18989 ft 222 kts 55°
2026-04-24 01:19 33.23383 -79.72018 18989 ft 222 kts 55°
2026-04-24 01:19 33.24253 -79.70491 18988 ft 222 kts 55°
2026-04-24 01:19 33.25121 -79.68963 18987 ft 222 kts 55°
2026-04-24 01:19 33.26041 -79.67485 18984 ft 221 kts 43°
2026-04-24 01:20 33.27280 -79.66417 18982 ft 220 kts 30°
2026-04-24 01:20 33.28588 -79.65472 18986 ft 220 kts 31°
2026-04-24 01:20 33.29855 -79.64447 18990 ft 220 kts 34°
2026-04-24 01:20 33.31099 -79.63376 18990 ft 220 kts 34°
2026-04-24 01:21 33.32330 -79.62324 18989 ft 221 kts 34°
2026-04-24 01:21 33.33582 -79.61264 18990 ft 221 kts 33°
2026-04-24 01:21 33.34836 -79.60203 18989 ft 221 kts 33°
2026-04-24 01:21 33.36088 -79.59142 18991 ft 221 kts 34°
2026-04-24 01:22 33.37343 -79.58078 18988 ft 221 kts 34°
2026-04-24 01:22 33.38595 -79.57015 18986 ft 220 kts 33°
2026-04-24 01:22 33.39832 -79.55965 18982 ft 216 kts 33°
2026-04-24 01:22 33.41056 -79.54927 18885 ft 218 kts 33°
2026-04-24 01:23 33.42312 -79.53861 18694 ft 223 kts 34°
2026-04-24 01:23 33.43584 -79.52780 18486 ft 226 kts 34°
2026-04-24 01:23 33.44878 -79.51680 18147 ft 232 kts 34°
2026-04-24 01:23 33.46204 -79.50553 17746 ft 235 kts 34°
2026-04-24 01:24 33.47544 -79.49412 17352 ft 237 kts 34°
2026-04-24 01:24 33.48895 -79.48262 16963 ft 239 kts 34°
2026-04-24 01:24 33.50251 -79.47107 16582 ft 239 kts 34°
2026-04-24 01:24 33.51609 -79.45951 16209 ft 239 kts 34°
2026-04-24 01:25 33.52965 -79.44797 15842 ft 239 kts 35°
2026-04-24 01:25 33.54316 -79.43645 15478 ft 238 kts 35°
2026-04-24 01:25 33.55660 -79.42500 15125 ft 236 kts 36°
2026-04-24 01:25 33.56993 -79.41362 14772 ft 235 kts 36°
2026-04-24 01:26 33.58318 -79.40232 14428 ft 233 kts 36°
2026-04-24 01:26 33.59633 -79.39110 14084 ft 231 kts 36°
2026-04-24 01:26 33.60936 -79.37997 13736 ft 229 kts 36°
2026-04-24 01:26 33.62230 -79.36893 13356 ft 227 kts 36°
2026-04-24 01:27 33.63511 -79.35797 12989 ft 225 kts 36°
2026-04-24 01:27 33.64782 -79.34711 12629 ft 223 kts 35°
2026-04-24 01:27 33.66043 -79.33633 12272 ft 221 kts 34°
2026-04-24 01:27 33.67292 -79.32564 11921 ft 220 kts 34°
2026-04-24 01:28 33.68530 -79.31505 11580 ft 218 kts 34°
2026-04-24 01:28 33.69757 -79.30455 11241 ft 216 kts 33°
2026-04-24 01:28 33.70975 -79.29412 10911 ft 214 kts 33°
2026-04-24 01:28 33.72180 -79.28379 10581 ft 212 kts 33°
2026-04-24 01:29 33.73377 -79.27354 10263 ft 210 kts 33°
2026-04-24 01:29 33.74563 -79.26337 9942 ft 209 kts 33°
2026-04-24 01:29 33.75742 -79.25326 9593 ft 207 kts 32°
2026-04-24 01:29 33.76913 -79.24322 9240 ft 207 kts 32°
2026-04-24 01:30 33.78082 -79.23319 8901 ft 206 kts 32°
2026-04-24 01:30 33.79247 -79.22319 8569 ft 205 kts 32°
2026-04-24 01:30 33.80408 -79.21323 8243 ft 205 kts 32°
2026-04-24 01:30 33.81566 -79.20328 7923 ft 205 kts 32°
2026-04-24 01:31 33.82725 -79.19332 7605 ft 205 kts 32°
2026-04-24 01:31 33.83886 -79.18333 7289 ft 205 kts 32°
2026-04-24 01:31 33.85048 -79.17335 6978 ft 205 kts 32°
2026-04-24 01:31 33.86209 -79.16336 6667 ft 205 kts 32°
2026-04-24 01:32 33.87370 -79.15337 6361 ft 205 kts 32°
2026-04-24 01:32 33.88532 -79.14337 6033 ft 205 kts 32°
2026-04-24 01:32 33.89673 -79.13303 5715 ft 206 kts 41°
2026-04-24 01:32 33.90434 -79.11864 5399 ft 211 kts 70°
2026-04-24 01:33 33.90543 -79.10117 5090 ft 212 kts 100°
2026-04-24 01:33 33.90085 -79.08444 4793 ft 210 kts 114°
2026-04-24 01:33 33.89528 -79.06821 4495 ft 209 kts 113°
2026-04-24 01:33 33.89034 -79.05183 4187 ft 208 kts 110°
2026-04-24 01:34 33.88589 -79.03528 3889 ft 207 kts 110°
2026-04-24 01:34 33.88148 -79.01890 3582 ft 205 kts 111°
2026-04-24 01:34 33.87704 -79.00265 3291 ft 203 kts 111°
2026-04-24 01:34 33.87218 -78.98706 2989 ft 194 kts 123°
2026-04-24 01:35 33.86323 -78.97595 2682 ft 181 kts 154°
2026-04-24 01:35 33.85177 -78.97114 2386 ft 171 kts 173°
2026-04-24 01:35 33.84050 -78.96798 2195 ft 162 kts 171°
2026-04-24 01:35 33.82978 -78.96486 2060 ft 156 kts 174°
2026-04-24 01:36 33.81934 -78.96245 1928 ft 150 kts 176°
2026-04-24 01:36 33.80928 -78.96007 1794 ft 145 kts 174°
2026-04-24 01:36 33.79998 -78.95768 1677 ft 129 kts 175°
2026-04-24 01:36 33.79169 -78.95584 1634 ft 112 kts 175°
2026-04-24 01:37 33.78433 -78.95401 1652 ft 105 kts 174°
2026-04-24 01:37 33.77729 -78.95216 1610 ft 103 kts 174°
2026-04-24 01:37 33.77024 -78.95028 1553 ft 103 kts 176°
2026-04-24 01:37 33.76315 -78.94853 1449 ft 105 kts 177°
2026-04-24 01:38 33.75627 -78.94706 1339 ft 97 kts 176°
2026-04-24 01:38 33.74980 -78.94543 1177 ft 93 kts 177°
2026-04-24 01:38 33.74347 -78.94408 1022 ft 90 kts 178°
2026-04-24 01:38 33.73743 -78.94294 881 ft 87 kts 175°
2026-04-24 01:39 33.73144 -78.94141 753 ft 89 kts 169°
2026-04-24 01:39 33.72546 -78.93958 665 ft 87 kts 172°
2026-04-24 01:39 33.71957 -78.93816 563 ft 88 kts 175°
2026-04-24 01:39 33.71350 -78.93651 427 ft 91 kts 174°
2026-04-24 01:40 33.70760 -78.93529 361 ft 82 kts 172°
2026-04-24 01:40 33.70187 -78.93385 229 ft 84 kts 170°
2026-04-24 01:40 33.69611 -78.93240 127 ft 85 kts 168°
2026-04-24 01:40 33.69038 -78.93098 46 ft 81 kts 168°
2026-04-24 01:41 33.68552 -78.92979 29 ft 62 kts 169°
2026-04-24 01:41 33.68160 -78.92879 25 ft 49 kts 167°
2026-04-24 01:41 33.67879 -78.92809 29 ft 33 kts 171°
2026-04-24 01:41 33.67667 -78.92758 26 ft 29 kts 169°
2026-04-24 01:42 33.67487 -78.92712 27 ft 19 kts 173°
2026-04-24 01:42 33.67419 -78.92778 27 ft 13 kts 257°
2026-04-24 01:42 33.67400 -78.92885 27 ft 13 kts 258°
2026-04-24 01:42 33.67389 -78.92963 29 ft 8 kts 259°
2026-04-24 01:43 33.67370 -78.93025 27 ft 8 kts 228°
2026-04-24 01:43 33.67332 -78.93064 26 ft 9 kts 247°
2026-04-24 01:43 33.67326 -78.93151 26 ft 11 kts 268°
2026-04-24 01:43 33.67328 -78.93222 26 ft 5 kts 302°
2026-04-24 01:44 33.67357 -78.93233 26 ft 4 kts 352°
2026-04-24 01:44 33.67372 -78.93251 26 ft 0 kts 227°
2026-04-24 01:44 33.67369 -78.93253 26 ft 0 kts 167°